• In Hungary
  • List of Countries
  • For 7 days
  • Water Temperature
  • Satellite Maps
  • Weather Map
  • News
  • Weather Widgets
  • user-avatar
    Login

    Hourly Weather Amman

    Today, 26 September, Tuesday

    Time Temperature Precipitation Wind Pressure Humidity
    00:00 +22°C° 0 mm 3 mps 691 mmHg 63%
    01:00 +21°C° 0 mm 2 mps 691 mmHg 66%
    02:00 +21°C° 0 mm 2 mps 691 mmHg 66%
    03:00 +21°C° 0 mm 2 mps 691 mmHg 67%
    04:00 +20°C° 0 mm 2 mps 691 mmHg 68%
    05:00 +20°C° 0 mm 2 mps 691 mmHg 69%
    06:00 +21°C° 0 mm 2 mps 691 mmHg 64%
    07:00 +22°C° 0 mm 3 mps 692 mmHg 59%
    08:00 +24°C° 0 mm 3 mps 692 mmHg 55%
    09:00 +25°C° 0 mm 3 mps 692 mmHg 48%
    10:00 +27°C° 0 mm 4 mps 692 mmHg 42%
    11:00 +28°C° 0 mm 4 mps 693 mmHg 36%
    12:00 +29°C° 0 mm 5 mps 692 mmHg 33%
    13:00 +30°C° 0 mm 5 mps 692 mmHg 30%
    14:00 +30°C° 0 mm 6 mps 692 mmHg 27%
    15:00 +29°C° 0 mm 6 mps 692 mmHg 31%
    16:00 +28°C° 0 mm 6 mps 692 mmHg 35%
    17:00 +27°C° 0 mm 6 mps 692 mmHg 39%
    18:00 +26°C° 0 mm 5 mps 692 mmHg 46%
    19:00 +25°C° 0 mm 4 mps 692 mmHg 52%
    20:00 +22°C° 0 mm 4 mps 692 mmHg 58%
    21:00 +22°C° 0 mm 3 mps 692 mmHg 61%
    22:00 +21°C° 0 mm 3 mps 692 mmHg 63%
    23:00 +21°C° 0 mm 3 mps 692 mmHg 66%

    Tomorrow, 27 September, Wednesday

    Time Temperature Precipitation Wind Pressure Humidity
    00:00 +20°C° 0 mm 3 mps 692 mmHg 68%
    01:00 +20°C° 0 mm 3 mps 692 mmHg 71%
    02:00 +20°C° 0 mm 3 mps 692 mmHg 73%
    03:00 +19°C° 0 mm 3 mps 692 mmHg 76%
    04:00 +19°C° 0 mm 2 mps 692 mmHg 78%
    05:00 +18°C° 0 mm 2 mps 692 mmHg 81%
    06:00 +19°C° 0 mm 2 mps 693 mmHg 75%
    07:00 +20°C° 0 mm 2 mps 693 mmHg 69%
    08:00 +21°C° 0 mm 2 mps 694 mmHg 63%
    09:00 +24°C° 0 mm 3 mps 694 mmHg 53%
    10:00 +25°C° 0 mm 3 mps 694 mmHg 44%
    11:00 +27°C° 0 mm 3 mps 694 mmHg 35%
    12:00 +28°C° 0 mm 4 mps 694 mmHg 32%
    13:00 +28°C° 0 mm 4 mps 694 mmHg 29%
    14:00 +29°C° 0 mm 5 mps 694 mmHg 27%
    15:00 +28°C° 0 mm 5 mps 693 mmHg 30%
    16:00 +27°C° 0 mm 5 mps 693 mmHg 34%
    17:00 +26°C° 0 mm 5 mps 693 mmHg 37%
    18:00 +25°C° 0 mm 4 mps 693 mmHg 43%
    19:00 +23°C° 0 mm 4 mps 693 mmHg 49%
    20:00 +22°C° 0 mm 3 mps 693 mmHg 54%
    21:00 +21°C° 0 mm 3 mps 693 mmHg 57%
    22:00 +21°C° 0 mm 3 mps 693 mmHg 61%
    23:00 +20°C° 0 mm 3 mps 693 mmHg 64%

    Day after tomorrow, 28 September, Thursday

    Time Temperature Precipitation Wind Pressure Humidity
    00:00 +20°C° 0 mm 3 mps 692 mmHg 66%
    01:00 +19°C° 0 mm 2 mps 692 mmHg 69%
    02:00 +19°C° 0 mm 2 mps 692 mmHg 71%
    03:00 +18°C° 0 mm 2 mps 692 mmHg 74%
    04:00 +18°C° 0 mm 2 mps 692 mmHg 76%
    05:00 +18°C° 0 mm 1 mps 692 mmHg 79%
    06:00 +18°C° 0 mm 2 mps 692 mmHg 73%
    07:00 +20°C° 0 mm 2 mps 693 mmHg 67%
    08:00 +21°C° 0 mm 2 mps 693 mmHg 60%
    09:00 +23°C° 0 mm 2 mps 693 mmHg 51%
    10:00 +25°C° 0 mm 2 mps 693 mmHg 43%
    11:00 +26°C° 0 mm 2 mps 693 mmHg 34%
    12:00 +27°C° 0 mm 2 mps 693 mmHg 31%
    13:00 +28°C° 0 mm 3 mps 692 mmHg 28%
    14:00 +29°C° 0 mm 3 mps 692 mmHg 24%
    15:00 +28°C° 0 mm 3 mps 692 mmHg 27%
    16:00 +28°C° 0 mm 4 mps 692 mmHg 30%
    17:00 +27°C° 0 mm 4 mps 691 mmHg 32%
    18:00 +26°C° 0 mm 4 mps 691 mmHg 39%
    19:00 +23°C° 0 mm 4 mps 691 mmHg 46%
    20:00 +22°C° 0 mm 3 mps 691 mmHg 53%
    21:00 +22°C° 0 mm 3 mps 691 mmHg 58%
    22:00 +21°C° 0 mm 3 mps 691 mmHg 62%
    23:00 +20°C° 0 mm 3 mps 691 mmHg 67%

    29 September, Friday

    Time Temperature Precipitation Wind Pressure Humidity
    00:00 +20°C° 0 mm 3 mps 691 mmHg 69%
    01:00 +19°C° 0 mm 3 mps 691 mmHg 71%
    02:00 +19°C° 0 mm 2 mps 691 mmHg 73%
    03:00 +18°C° 0 mm 2 mps 691 mmHg 74%
    04:00 +18°C° 0 mm 2 mps 690 mmHg 75%
    05:00 +18°C° 0 mm 2 mps 690 mmHg 76%
    06:00 +19°C° 0 mm 2 mps 691 mmHg 71%
    07:00 +19°C° 0 mm 2 mps 691 mmHg 65%
    08:00 +20°C° 0 mm 2 mps 691 mmHg 59%
    09:00 +22°C° 0 mm 3 mps 691 mmHg 52%
    10:00 +24°C° 0 mm 3 mps 691 mmHg 45%
    11:00 +25°C° 0 mm 4 mps 691 mmHg 37%
    12:00 +26°C° 0 mm 4 mps 691 mmHg 34%
    13:00 +27°C° 0 mm 4 mps 691 mmHg 32%
    14:00 +27°C° 0 mm 5 mps 690 mmHg 29%
    15:00 +26°C° 0 mm 5 mps 690 mmHg 33%
    16:00 +26°C° 0 mm 5 mps 690 mmHg 37%
    17:00 +24°C° 0 mm 6 mps 690 mmHg 40%
    18:00 +23°C° 0 mm 5 mps 691 mmHg 47%
    19:00 +22°C° 0 mm 5 mps 691 mmHg 53%
    20:00 +20°C° 0 mm 4 mps 691 mmHg 60%
    21:00 +20°C° 0 mm 4 mps 691 mmHg 61%
    22:00 +20°C° 0 mm 4 mps 691 mmHg 63%
    23:00 +19°C° 0 mm 4 mps 691 mmHg 64%

    30 September, Saturday

    Time Temperature Precipitation Wind Pressure Humidity
    00:00 +19°C° 0 mm 3 mps 691 mmHg 66%
    01:00 +18°C° 0 mm 3 mps 690 mmHg 67%
    02:00 +18°C° 0 mm 3 mps 690 mmHg 68%
    03:00 +18°C° 0 mm 3 mps 690 mmHg 69%
    04:00 +18°C° 0 mm 2 mps 690 mmHg 70%
    05:00 +17°C° 0 mm 2 mps 690 mmHg 71%
    06:00 +18°C° 0 mm 3 mps 691 mmHg 67%
    07:00 +19°C° 0 mm 3 mps 691 mmHg 63%
    08:00 +20°C° 0 mm 3 mps 691 mmHg 58%
    09:00 +21°C° 0 mm 4 mps 692 mmHg 52%
    10:00 +23°C° 0 mm 4 mps 692 mmHg 47%
    11:00 +25°C° 0 mm 4 mps 692 mmHg 41%
    12:00 +25°C° 0 mm 5 mps 691 mmHg 40%
    13:00 +26°C° 0 mm 5 mps 691 mmHg 39%
    14:00 +26°C° 0 mm 5 mps 691 mmHg 39%
    15:00 +26°C° 0 mm 5 mps 691 mmHg 42%
    16:00 +25°C° 0 mm 5 mps 691 mmHg 46%
    17:00 +23°C° 0 mm 5 mps 691 mmHg 50%
    18:00 +23°C° 0 mm 4 mps 691 mmHg 54%
    19:00 +22°C° 0 mm 3 mps 692 mmHg 59%
    20:00 +21°C° 0 mm 3 mps 692 mmHg 63%
    21:00 +21°C° 0 mm 2 mps 692 mmHg 66%
    22:00 +20°C° 0 mm 2 mps 692 mmHg 68%
    23:00 +20°C° 0 mm 2 mps 692 mmHg 71%

    1 October, Sunday

    Time Temperature Precipitation Wind Pressure Humidity
    00:00 +19°C° 0 mm 2 mps 692 mmHg 73%
    01:00 +20°C° 0 mm 1 mps 692 mmHg 75%
    02:00 +19°C° 0 mm 1 mps 691 mmHg 78%
    03:00 +19°C° 0 mm 1 mps 692 mmHg 79%
    04:00 +18°C° 0 mm 1 mps 692 mmHg 80%
    05:00 +18°C° 0 mm 1 mps 692 mmHg 81%
    06:00 +19°C° 0 mm 1 mps 692 mmHg 74%
    07:00 +20°C° 0 mm 1 mps 693 mmHg 66%
    08:00 +21°C° 0 mm 1 mps 693 mmHg 58%
    09:00 +23°C° 0 mm 1 mps 693 mmHg 51%
    10:00 +24°C° 0 mm 2 mps 693 mmHg 43%
    11:00 +26°C° 0 mm 2 mps 694 mmHg 36%
    12:00 +26°C° 0 mm 3 mps 693 mmHg 33%
    13:00 +27°C° 0 mm 3 mps 693 mmHg 30%
    14:00 +28°C° 0 mm 4 mps 693 mmHg 26%
    15:00 +27°C° 0 mm 4 mps 693 mmHg 30%
    16:00 +26°C° 0 mm 5 mps 693 mmHg 33%
    17:00 +26°C° 0 mm 5 mps 693 mmHg 36%
    18:00 +23°C° 0 mm 4 mps 693 mmHg 44%
    19:00 +22°C° 0 mm 4 mps 693 mmHg 51%
    20:00 +21°C° 0 mm 4 mps 693 mmHg 59%
    21:00 +21°C° 0 mm 3 mps 693 mmHg 63%
    22:00 +20°C° 0 mm 3 mps 692 mmHg 66%
    23:00 +19°C° 0 mm 2 mps 692 mmHg 70%
    Show more